Вернуться в каталог

FENGYUN 1C DEB

АктивенPO
NORAD 29889·DEBRIS·🇨🇳 China

Запущен May 10, 1999 с Taiyuan Satellite Launch Center

Loading…

Ближайшие Пролёты (ближайшие 24 часа)

TLE

СвежийSource: Space-Track

Эпоха: Sep 13, 2026, 20:57 UTC

1 29889U 99025GK  26256.87295069  .00000312  00000-0  17088-3 0  9991
2 29889  99.5124  36.1510 0153192 353.0767 160.2563 14.13875707 12027

Отслеживайте FENGYUN 1C DEB в реальном времени с AllMySat

Download on the App Store